Regional Weather Roundup
Issued by NWS

Home | Current Version | Previous Version | Graphics & Text | Print | Product List | Glossary On
Versions: 1 2 3 4 5 6 7 8 9 10 11 12 13 14 15 16 17 18 19 20 21 22 23 24 25 26 27 28 29 30 31 32 33 34 35 36 37 38 39 40 41 42 43 44 45 46 47 48 49 50
128
ASUS43 KMKX 091200
RWRWI

WISCONSIN REGIONAL WEATHER ROUNDUP
NATIONAL WEATHER SERVICE MILWAUKEE/SULLIVAN WI
600 AM CST FRI DEC 09 2016

NOTE: "FAIR" INDICATES FEW OR NO CLOUDS BELOW 12,000 FEET WITH NO
SIGNIFICANT WEATHER AND/OR OBSTRUCTIONS TO VISIBILITY.

WIZ001-002-006>008-014>016-023>028-091300-
NORTHWEST WISCONSIN

CITY           SKY/WX    TMP DP  RH WIND       PRES   REMARKS
SUPERIOR ARPT  CLOUDY    15   8  72 NW6       30.51S WCI   7
ASHLAND        CLOUDY    16   8  71 NW7       30.47S WCI   6
6HR MIN TEMP:  13; 6HR MAX TEMP:  17; 6HR PCP: TRACE;

HAYWARD        CLOUDY    13   6  74 NW5       30.46S WCI   5
6HR MIN TEMP:  11; 6HR MAX TEMP:  16;

SIREN          CLOUDY    13  10  88 CALM      30.50S
CUMBERLAND     FLURRIES  10   9  92 W5        30.47S WCI   2
RICE LAKE      CLOUDY    10   7  90 CALM      30.50S
CHETEK         MOCLDY    10   8  89 CALM      30.49S
LADYSMITH      PTCLDY    10   6  84 NW6       30.47R WCI   1
EAU CLAIRE     NOT AVBL
MENOMONIE      PTCLDY    12  10  88 W5        30.52R WCI   5
NEW RICHMOND   FLURRIES  13  10  87 W5        30.51S WCI   6
OSCEOLA        FLURRIES  14  11  87 W5        30.55S WCI   6
$$

WIZ003>005-009-010-017-018-091300-
NORTH CENTRAL WISCONSIN

CITY           SKY/WX    TMP DP  RH WIND       PRES   REMARKS
MANITOWISH WTR CLOUDY    12   8  85 NW8       30.36S WCI   0
ARBOR VITAE    MOCLDY    16  10  78 NW7       30.36S WCI   6
WOODRUFF       MOCLDY    16  10  78 NW7       30.36S WCI   6
RHINELANDER    CLOUDY    13   8  81 W8        30.37R WCI   2
6HR MIN TEMP:  13; 6HR MAX TEMP:  19; 6HR PCP: TRACE;

EAGLE RIVER    FLURRIES  15  10  80 W7        30.34S WCI   6
LAND O LAKES   FLURRIES  15  12  88 W3        30.35F
PHILLIPS       PTCLDY    11   8  87 CALM      30.40S
6HR MIN TEMP:  11; 6HR MAX TEMP:  17;

TOMAHAWK       CLEAR      9   6  88 CALM      30.40S
MEDFORD        CLEAR     11   7  85 W9        30.40S WCI  -2
MERRILL        CLEAR     14   7  73 NW5       30.42S WCI   6
$$

WIZ029-030-035-036-043>047-091300-
CENTRAL WISCONSIN

CITY           SKY/WX    TMP DP  RH WIND       PRES   REMARKS
WAUSAU         PTCLDY    15   6  67 N9        30.41R WCI   3
6HR MIN TEMP:  15; 6HR MAX TEMP:  20; 6HR PCP: TRACE;

MOSINEE        PTCLDY   N/A N/A N/A NW10      30.42R
MARSHFIELD     PTCLDY    11   7  84 NW12      30.42S WCI  -3
6HR MIN TEMP:  11; 6HR MAX TEMP:  18;

STEVENS POINT  CLOUDY    17  11  80 W6        30.43R WCI   8
WAUPACA        MOCLDY    22  14  71 W8        30.43S WCI  13
WAUTOMA        CLOUDY    17  12  80 W10       30.46R WCI   5
6HR MIN TEMP:  16; 6HR MAX TEMP:  22; 6HR PCP: TRACE;

WISC RAPIDS    PTCLDY    15  10  80 NW9       30.46R WCI   3
6HR MIN TEMP:  14; 6HR MAX TEMP:  20;

CAMP DOUGLAS   NOT AVBL
$$

WIZ011>013-019>022-031-037>040-048>050-091300-
NORTHEAST WISCONSIN

CITY           SKY/WX    TMP DP  RH WIND       PRES   REMARKS
ANTIGO         CLOUDY    16  10  77 NW10G17   30.37R WCI   3
SHAWANO        CLOUDY    22  15  71 W6        30.41S WCI  15
OCONTO         CLEAR     17   8  67 W7        30.40R WCI   7
STURGEON BAY   CLEAR     21  11  65 NW17G23   30.38R WCI   7
6HR MIN TEMP:  21; 6HR MAX TEMP:  24; 6HR PCP:  0.07;

GREEN BAY      CLOUDY    22  16  78 NW10      30.41R WCI  11
6HR MIN TEMP:  21; 6HR MAX TEMP:  24;

MANITOWOC      NOT AVBL
APPLETON       MOCLDY    16   9  73 W6        30.39R WCI   7
CLINTONVILLE   CLOUDY    21  12  68 NW9       30.41S WCI  11
OSHKOSH        CLOUDY    19  12  74 W8        30.42R WCI   9
6HR MIN TEMP:  18; 6HR MAX TEMP:  21;

$$

WIZ032>034-041-042-053>061-091300-
SOUTHWEST WISCONSIN

CITY           SKY/WX    TMP DP  RH WIND       PRES   REMARKS
LA CROSSE      CLOUDY    21  12  68 N12       30.52S WCI   9
6HR MIN TEMP:  21; 6HR MAX TEMP:  24; 6HR PCP: TRACE;

SPARTA         CLOUDY    18  13  79 NW10      30.51R WCI   7
VIROQUA        CLOUDY    18  15  89 NW6       30.47R WCI   9
6HR MIN TEMP:  18; 6HR MAX TEMP:  20;

BOSCOBEL       CLOUDY    20  14  77 SW6       30.54R WCI  12
6HR MIN TEMP:  20; 6HR MAX TEMP:  23; 6HR PCP: TRACE;

PRAIRIE DU CHI CLEAR     16  10  78 W5        30.55R WCI   9
PLATTEVILLE    CLOUDY    19  17  92 W8        30.50R WCI   8
$$

WIZ056-057-062-063-064-067-068-091300-
SOUTH CENTRAL WISCONSIN

CITY           SKY/WX    TMP DP  RH WIND       PRES   REMARKS
REEDSBURG      CLOUDY    20  11  69 NW8G17    30.47R WCI  10
BARABOO/DELLS  CLOUDY    20  11  66 N10G17    30.46R WCI   9
LONE ROCK      NOT AVBL
MINERAL POINT  FLURRIES  21  19  93 W9        30.47R WCI  11
MADISON        MOCLDY    20  12  71 NW6       30.46R WCI  12
6HR MIN TEMP:  19; 6HR MAX TEMP:  22; 6HR PCP: TRACE;

MIDDLETON      CLOUDY    23  15  71 NW12      30.46S WCI  12
WATERTOWN      PTCLDY    19  16  88 W6        30.45R WCI  10
MONROE         FLURRIES  21  18  86 W9        30.46R WCI  11
JANESVILLE     CLOUDY    25  19  80 NW9       30.46R WCI  15
$$

WIZ051-052-058>065-066-070>072-091300-
SOUTHEAST WISCONSIN

CITY           SKY/WX    TMP DP  RH WIND       PRES   REMARKS
MILWAUKEE      CLEAR     24  15  68 W12       30.44R WCI  13
6HR MIN TEMP:  23; 6HR MAX TEMP:  24;

WAUKESHA       NOT AVBL
MILWAUKEE/TIMM CLEAR     19  14  79 W5        30.44S WCI  13
RACINE         CLEAR     20  14  77 NW8       30.46R WCI  10
6HR MIN TEMP:  20; 6HR MAX TEMP:  24;

BURLINGTON     CLOUDY    26  23  89 CALM      30.44S
KENOSHA        CLOUDY    21  16  81 NW10      30.45R WCI  10
6HR MIN TEMP:  20; 6HR MAX TEMP:  22;

FOND DU LAC    PTCLDY    19  11  70 W12       30.42S WCI   7
6HR MIN TEMP:  19; 6HR MAX TEMP:  22;

SHEBOYGAN      CLEAR     20  13  74 W7        30.41R WCI  11
6HR MIN TEMP:  20; 6HR MAX TEMP:  23;

WEST BEND      CLEAR     19  18  93 W9        30.42R WCI   9
JUNEAU         CLEAR     18  13  81 W6        30.45R WCI  10
$$

LSZ147-162-091300-
LAKE SUPERIOR

STATION/POSITION TIME  TEMP    WIND        PRES    WAVE
                       AIR SEA DIR/SP/G            HT/PER
                 (UTC) (F)     (DEG/KT/KT) (MB)    (FT/S)
DEVILS ISLAND    1100   19     310/ 16/ 19 1032.5R
PORT WING        1140   19     300/ 15/ 17 1032.2S
SAXON HARBOR     1140   19     270/  9/ 14 1031.2R
$$

LMZ867-665-643>646-091300-
LAKE MICHIGAN

STATION/POSITION TIME  TEMP    WIND        PRES    WAVE
                       AIR SEA DIR/SP/G            HT/PER
                 (UTC) (F)     (DEG/KT/KT) (MB)    (FT/S)
CHAMBERS ISLAND  1140   21     290/  8/ 19 1027.8R
NORTHPORT PIER   1145   24     300/ 18     1027.4S
SISTER BAY       1120   23     330/ 23/ 28   N/A
ALGOMA LAKESHORE 1121          330/ 11/ 14   N/A
KEWAUNEE LAKESHO 1130   21     320/  5/  8 1028.3R
SHEBOYGAN LAKESH 1100   22     290/ 11/ 13 1030.4R
PORT WASHINGTON  1140   21     290/  7/ 11 1031.2S
MILWAUKEE LAKESH 1130   22     280/  9/ 11   N/A
KENOSHA   LAKESH 1100   21     290/  8/ 14 1030.8
$$

TC  - TEMPERATURE IN CELSIUS
VSB - VISIBILITY IN STATUTE MILES
WCI - WIND CHILL INDEX
HX  - HEAT INDEX





USA.gov is the U.S. government's official web portal to all federal, state and local government web resources and services.